Time,TemperatureF,DewpointF,PressureIn,WindDirection,WindDirectionDegrees,WindSpeedMPH,WindSpeedGustMPH,Humidity,HourlyPrecipIn,Conditions,Clouds,dailyrainin,SolarRadiationWatts/m^2,SoftwareType,DateUTC
2013-07-16 00:25:00,82.0,49.0,-100.00,NW,306,3.0,11.0,32,0.00,,,0.00,703.000000,,2013-07-16 00:25:00,
2013-07-16 00:33:00,82.0,49.0,-100.00,NW,306,3.0,11.0,32,0.00,,,0.00,703.000000,,2013-07-16 00:33:00,
2013-07-16 00:44:00,82.0,49.0,-100.00,NW,306,3.0,11.0,32,0.00,,,0.00,703.000000,,2013-07-16 00:44:00,
2013-07-16 00:52:00,82.0,49.0,-100.00,NW,306,3.0,11.0,32,0.00,,,0.00,703.000000,,2013-07-16 00:52:00,
2013-07-16 01:25:00,83.0,47.0,-100.00,NW,316,4.0,8.0,29,0.00,,,0.00,698.000000,,2013-07-16 01:25:00,
2013-07-16 01:45:00,83.0,47.0,-100.00,NW,316,4.0,8.0,29,0.00,,,0.00,698.000000,,2013-07-16 01:45:00,
2013-07-16 01:54:00,83.0,47.0,-100.00,NW,316,4.0,8.0,29,0.00,,,0.00,698.000000,,2013-07-16 01:54:00,
2013-07-16 02:25:00,84.0,47.0,-100.00,WSW,258,3.0,11.0,28,0.00,,,0.00,629.000000,,2013-07-16 02:25:00,
2013-07-16 02:35:00,84.0,47.0,-100.00,WSW,258,3.0,11.0,28,0.00,,,0.00,629.000000,,2013-07-16 02:35:00,
2013-07-16 02:45:00,84.0,47.0,-100.00,WSW,258,3.0,11.0,28,0.00,,,0.00,629.000000,,2013-07-16 02:45:00,
2013-07-16 02:54:00,84.0,47.0,-100.00,WSW,258,3.0,11.0,28,0.00,,,0.00,629.000000,,2013-07-16 02:54:00,
2013-07-16 18:43:00,63.0,48.0,-100.00,SSW,193,1.0,3.0,58,-99.99,,,0.00,245.000000,,2013-07-16 18:43:00,
2013-07-16 18:52:00,63.0,48.0,-100.00,SSW,193,1.0,3.0,58,-99.99,,,0.00,245.000000,,2013-07-16 18:52:00,
2013-07-16 19:22:00,64.0,47.0,-100.00,East,89,2.0,5.0,54,0.00,,,0.00,295.000000,,2013-07-16 19:22:00,
2013-07-16 19:32:00,64.0,47.0,-100.00,East,89,2.0,5.0,54,0.00,,,0.00,295.000000,,2013-07-16 19:32:00,
2013-07-16 19:43:00,64.0,47.0,-100.00,East,89,2.0,5.0,54,0.00,,,0.00,295.000000,,2013-07-16 19:43:00,
2013-07-16 19:52:00,64.0,47.0,-100.00,East,89,2.0,5.0,54,0.00,,,0.00,295.000000,,2013-07-16 19:52:00,
2013-07-16 20:43:00,65.0,46.0,-100.00,NW,316,2.0,5.0,51,0.00,,,0.00,308.000000,,2013-07-16 20:43:00,
2013-07-16 20:52:00,65.0,46.0,-100.00,NW,316,2.0,5.0,51,0.00,,,0.00,308.000000,,2013-07-16 20:52:00,
2013-07-16 21:43:00,69.0,50.0,-100.00,WSW,245,1.0,6.0,50,0.00,,,0.00,421.000000,,2013-07-16 21:43:00,
2013-07-16 21:52:00,69.0,50.0,-100.00,WSW,245,1.0,6.0,50,0.00,,,0.00,421.000000,,2013-07-16 21:52:00,
2013-07-16 22:33:00,70.0,49.0,-100.00,West,268,1.0,6.0,48,0.00,,,0.00,441.000000,,2013-07-16 22:33:00,
2013-07-16 22:43:00,70.0,49.0,-100.00,West,268,1.0,6.0,48,0.00,,,0.00,441.000000,,2013-07-16 22:43:00,
2013-07-16 22:52:00,70.0,49.0,-100.00,West,268,1.0,6.0,48,0.00,,,0.00,441.000000,,2013-07-16 22:52:00,
2013-07-16 23:22:00,75.0,50.0,-100.00,ENE,60,2.0,5.0,41,0.00,,,0.00,623.000000,,2013-07-16 23:22:00,
2013-07-16 23:32:00,75.0,50.0,-100.00,ENE,60,2.0,5.0,41,0.00,,,0.00,623.000000,,2013-07-16 23:32:00,
2013-07-16 23:42:00,75.0,50.0,-100.00,ENE,60,2.0,5.0,41,0.00,,,0.00,623.000000,,2013-07-16 23:42:00,
2013-07-16 23:52:00,75.0,50.0,-100.00,ENE,60,2.0,5.0,41,0.00,,,0.00,623.000000,,2013-07-16 23:52:00,